Regional Weather Roundup
Issued by NWS

Home | Current Version | Previous Version | Graphics & Text | Print | Product List | Glossary On
Versions: 1 2 3 4 5 6 7 8 9 10 11 12 13 14 15 16 17 18 19 20 21 22 23 24 25 26 27 28 29 30 31 32 33 34 35 36 37 38 39 40 41 42 43 44 45 46 47 48 49 50
000
ASUS43 KFSD 302110
RWRSD

WEATHER ROUNDUP FOR SOUTH DAKOTA
NATIONAL WEATHER SERVICE SIOUX FALLS SD
400 PM CDT SAT AUG 30 2014

NOTE: "FAIR" INDICATES FEW OR NO CLOUDS BELOW 12,000 FEET WITH NO
SIGNIFICANT WEATHER AND/OR OBSTRUCTIONS TO VISIBILITY.


SDZ001>005-009-010-012>017-302200-
NORTHWEST AND NORTH CENTRAL SOUTH DAKOTA

CITY           SKY/WX    TMP DP  RH WIND       PRES   REMARKS
BUFFALO          N/A     82  59  45 SE9G18    29.67F
FAITH            N/A     78  61  55 SE23G32   29.74F
MOBRIDGE       SUNNY     75  59  57 SE13      29.77F
$$

SDZ012>016-024>037-041>051-057-063-072>074-302200-
SOUTHWEST AND SOUTH CENTRAL SOUTH DAKOTA

CITY           SKY/WX    TMP DP  RH WIND       PRES   REMARKS
RAPID CTY ARPT SUNNY     86  56  35 SE17G28   29.72F
PIERRE         SUNNY     78  58  49 SE17      29.78F
CUSTER         SUNNY     81  43  26 SW10G18   29.88F
ELLSWORTH AFB  SUNNY     87  56  34 S22G29    29.71F
PHILIP         SUNNY     86  60  41 SE17G28   29.73F
PINE RIDGE     SUNNY     88  55  32 S16G23    29.77F
WINNER         FAIR      81  60  48 SE16G24   29.82F
$$

SDZ004>011-016>023-039-040-302200-
NORTHEAST SOUTH DAKOTA

CITY           SKY/WX    TMP DP  RH WIND       PRES   REMARKS
ABERDEEN       PTSUNNY   71  59  65 SE8       29.85F
WATERTOWN      CLOUDY    67  58  72 S7        29.88F
SISSETON         N/A     71  60  68 VRB5      29.85F
$$

SDZ017-020-022-023-036>040-048>070-302200-
SOUTHEAST SOUTH DAKOTA

CITY           SKY/WX    TMP DP  RH WIND       PRES   REMARKS
SIOUX FALLS    PTSUNNY   69  60  73 VRB3      29.89F
HURON          SUNNY     70  57  63 SE7       29.86F
CHAMBERLAIN    SUNNY     74  60  62 SE13      29.84F
MITCHELL       SUNNY     71  60  68 SE7       29.87F
YANKTON        SUNNY     72  61  68 E3        29.88F
$$

ABBREVIATIONS USED IN REMARKS
   TC - TEMPERATURE IN CELSIUS
  WCI - WIND CHILL INDEX
   HX - HEAT INDEX
  VSB - VISIBILITY



USA.gov is the U.S. government's official web portal to all federal, state and local government web resources and services.